This is the latest recevied weather packets stored in our database for station/object K7YVO. If no packets are shown the sender has not sent any weather packets the latest 10 day(s).
| Time | Temp. | Humidity | Pressure | Rain* | Wind** | Luminosity | Snow |
|---|---|---|---|---|---|---|---|
| 1778088492 | 13.33° C | 88% | 1023.1 hPa | 0 mm | - | 132 W/m² | - |
| 1778088188 | 13.33° C | 88% | 1023 hPa | 0 mm | - | 106 W/m² | - |
| 1778087887 | 13.89° C | 87% | 1022.9 hPa | 0 mm | - | 90 W/m² | - |
| 1778087583 | 13.89° C | 88% | 1022.8 hPa | 0 mm | - | 112 W/m² | - |
| 1778087281 | 13.89° C | 87% | 1023 hPa | 0 mm | - | 108 W/m² | - |
| 1778086977 | 13.89° C | 87% | 1022.8 hPa | 0 mm | - | 99 W/m² | - |
| 1778086675 | 13.89° C | 87% | 1022.9 hPa | 0 mm | - | 79 W/m² | - |
| 1778086373 | 13.89° C | 86% | 1022.8 hPa | 0 mm | - | 79 W/m² | - |
| 1778086069 | 13.89° C | 86% | 1022.6 hPa | 0 mm | - | 89 W/m² | - |
| 1778085766 | 14.44° C | 86% | 1022.8 hPa | 0 mm | - | 88 W/m² | - |
| 1778085463 | 14.44° C | 85% | 1022.4 hPa | 0 mm | - | 105 W/m² | - |
| 1778085158 | 14.44° C | 85% | 1022.3 hPa | 0 mm | - | 126 W/m² | - |
| 1778084854 | 14.44° C | 85% | 1022.5 hPa | 0 mm | - | 160 W/m² | - |
| 1778084552 | 14.44° C | 85% | 1022.3 hPa | 0 mm | - | 162 W/m² | - |
| 1778084249 | 14.44° C | 84% | 1022.5 hPa | 0 mm | - | 178 W/m² | - |
| 1778083946 | 14.44° C | 84% | 1022.1 hPa | 0 mm | - | 172 W/m² | - |
| 1778083644 | 13.89° C | 86% | 1021.9 hPa | 0 mm | - | 130 W/m² | - |
| 1778083340 | 12.78° C | 89% | 1021.9 hPa | 0 mm | - | 161 W/m² | - |
| 1778083040 | 12.78° C | 89% | 1022.5 hPa | 0 mm | - | 106 W/m² | - |
| 1778082736 | 12.78° C | 89% | 1022.9 hPa | 0 mm | - | 80 W/m² | - |
| 1778081604 | 12.78° C | 90% | 1023 hPa | 0 mm | - | 32 W/m² | - |
| 1778081301 | 12.78° C | 91% | 1022.6 hPa | 0 mm | - | 36 W/m² | - |
| 1778080998 | 12.78° C | 91% | 1022.9 hPa | 0 mm | - | 31 W/m² | - |
| 1778080697 | 12.78° C | 91% | 1022.6 hPa | 0 mm | - | 45 W/m² | - |
| 1778080393 | 12.78° C | 91% | 1022.8 hPa | 0 mm | - | 46 W/m² | - |
* Rain latest hour (hover to see other rain measurements)
** Current wind speed in m/s (hover to see current wind gust speed)